Weather History for KOXV - July, 2013

Change the Weather History Date:

Wednesday, July 24, 2013

  Actual Average Record
Temperature  
Mean Temperature 68 °F -  
Max Temperature 77 °F 86 °F 98 °F (2012)
Min Temperature 59 °F 65 °F 55 °F (1948)
Cooling Degree Days 3    
Growing Degree Days 18 (Base 50)    
Moisture  
Dew Point 56 °F    
Average Humidity 65    
Maximum Humidity 88    
Minimum Humidity 47    
Precipitation  
Precipitation 0.00 in - - ()
Sea Level Pressure  
Sea Level Pressure 30.04 in    
Wind  
Wind Speed 5 mph (NE)    
Max Wind Speed 9 mph    
Max Gust Speed 15 mph    
Visibility 10 miles    
Events      
Averages and records for this station are not official NWS values.
T = Trace of Precipitation, MM = Missing Value Source: NWS Daily Summary

Daily Weather History Graph

Daily Weather History Graph

Search for Another Location

Airport or City:

Trip Planner

Search our weather history database for the weather conditions in past years. The results will help you decide how hot, cold, wet, or windy it might be!

Date:

Astronomy

Jul. 24, 2013 Rise Set
Actual Time 6:00 AM CDT 8:37 PM CDT
Civil Twilight 5:28 AM CDT 9:08 PM CDT
Nautical Twilight 4:48 AM CDT 9:48 PM CDT
Astronomical Twilight 4:03 AM CDT 10:33 PM CDT
Moon 9:40 PM CDT (7/24) 8:23 AM CDT (7/24)
Length of Visible Light 15h 40m
Length of Day
14h 36m
Waning Gibbous, 94% of the Moon is Illuminated
Jul 24
Waning Gibbous
Jul 29
Last Quarter
Aug 6
New
Aug 14
First Quarter
Aug 20
Full

Hourly Weather History & Observations

Time (CDT) Temp. Dew Point Humidity Pressure Visibility Wind Dir Wind Speed Gust Speed Precip Events Conditions
12:15 AM 66.2 °F 57.2 °F 73% 29.99 in 10.0 mi NE 6.9 mph - N/A   Clear
12:35 AM 66.2 °F 57.2 °F 73% 29.99 in 10.0 mi NE 6.9 mph - N/A   Clear
12:55 AM 66.2 °F 57.2 °F 73% 30.00 in 10.0 mi NE 5.8 mph - N/A   Clear
1:15 AM 64.4 °F 57.2 °F 77% 30.00 in 10.0 mi Calm Calm - N/A   Clear
1:35 AM 64.4 °F 57.2 °F 77% 30.00 in 10.0 mi ENE 4.6 mph - N/A   Clear
1:55 AM 64.4 °F 57.2 °F 77% 30.00 in 10.0 mi NE 5.8 mph - N/A   Mostly Cloudy
2:15 AM 64.4 °F 55.4 °F 73% 29.99 in - North - - N/A   Overcast
2:35 AM 64.4 °F 55.4 °F 73% 30.00 in 10.0 mi NE 5.8 mph - N/A   Mostly Cloudy
2:55 AM 64.4 °F 55.4 °F 73% 29.99 in 10.0 mi NE 6.9 mph - N/A   Mostly Cloudy
3:15 AM 64.4 °F 55.4 °F 73% 30.00 in 10.0 mi NE 5.8 mph - N/A   Mostly Cloudy
3:35 AM 62.6 °F 55.4 °F 77% 30.01 in 10.0 mi NE 5.8 mph - N/A   Clear
3:55 AM 62.6 °F 55.4 °F 77% 30.01 in 10.0 mi ENE 3.5 mph - N/A   Clear
4:15 AM 62.6 °F 55.4 °F 77% 30.01 in 10.0 mi ENE 5.8 mph - N/A   Clear
4:35 AM 62.6 °F 55.4 °F 77% 30.02 in 10.0 mi ENE 3.5 mph - N/A   Clear
4:55 AM 60.8 °F 55.4 °F 82% 30.03 in 10.0 mi ENE 3.5 mph - N/A   Mostly Cloudy
5:15 AM 60.8 °F 55.4 °F 82% 30.03 in 10.0 mi East 4.6 mph - N/A   Overcast
5:35 AM 60.8 °F 55.4 °F 82% 30.04 in 10.0 mi Calm Calm - N/A   Overcast
5:55 AM 60.8 °F 55.4 °F 82% 30.03 in 10.0 mi East 5.8 mph - N/A   Mostly Cloudy
6:15 AM 60.8 °F 55.4 °F 82% 30.04 in 10.0 mi East 4.6 mph - N/A   Partly Cloudy
6:35 AM 60.8 °F 55.4 °F 82% 30.05 in 10.0 mi Calm Calm - N/A   Clear
6:55 AM 59.0 °F 55.4 °F 88% 30.05 in 10.0 mi Calm Calm - N/A   Clear
7:15 AM 62.6 °F 55.4 °F 77% 30.04 in 10.0 mi Calm Calm - N/A   Clear
7:35 AM 62.6 °F 55.4 °F 77% 30.05 in 10.0 mi ENE 3.5 mph - N/A   Clear
7:55 AM 64.4 °F 55.4 °F 73% 30.05 in 10.0 mi East 4.6 mph - N/A   Clear
8:15 AM 64.4 °F 57.2 °F 77% 30.05 in 10.0 mi East 3.5 mph - N/A   Clear
8:35 AM 66.2 °F 57.2 °F 73% 30.06 in 10.0 mi Calm Calm - N/A   Clear
8:55 AM 66.2 °F 57.2 °F 73% 30.07 in 10.0 mi Calm Calm - N/A   Clear
9:15 AM 68.0 °F 57.2 °F 68% 30.07 in 10.0 mi Calm Calm - N/A   Clear
9:35 AM 69.8 °F 57.2 °F 64% 30.07 in 10.0 mi Calm Calm - N/A   Clear
9:55 AM 69.8 °F 57.2 °F 64% 30.07 in 10.0 mi Calm Calm - N/A   Clear
10:15 AM 69.8 °F 59.0 °F 68% 30.07 in 10.0 mi WNW 3.5 mph - N/A   Clear
10:35 AM 71.6 °F 57.2 °F 60% 30.07 in 10.0 mi NNW 5.8 mph - N/A   Clear
10:55 AM 73.4 °F 57.2 °F 57% 30.07 in 10.0 mi NW 6.9 mph - N/A   Partly Cloudy
11:15 AM 73.4 °F 57.2 °F 57% 30.07 in 10.0 mi NW 6.9 mph - N/A   Partly Cloudy
11:35 AM 73.4 °F 57.2 °F 57% 30.06 in 10.0 mi NNW 3.5 mph - N/A   Scattered Clouds
12:15 PM 75.2 °F 55.4 °F 50% 30.07 in 10.0 mi NNW 4.6 mph - N/A   Mostly Cloudy
12:35 PM 75.2 °F 55.4 °F 50% 30.07 in 10.0 mi Variable 5.8 mph 11.5 mph N/A   Scattered Clouds
12:55 PM 75.2 °F 57.2 °F 53% 30.07 in 10.0 mi Variable 3.5 mph - N/A   Scattered Clouds
1:15 PM 75.2 °F 55.4 °F 50% 30.07 in 10.0 mi NNW 9.2 mph 15.0 mph N/A   Scattered Clouds
1:35 PM 77.0 °F 57.2 °F 50% 30.06 in 10.0 mi NNE 8.1 mph - N/A   Mostly Cloudy
1:55 PM 75.2 °F 55.4 °F 50% 30.06 in 10.0 mi NNE 5.8 mph - N/A   Mostly Cloudy
2:15 PM 75.2 °F 55.4 °F 50% 30.06 in 10.0 mi North 8.1 mph - N/A   Mostly Cloudy
2:35 PM 77.0 °F 55.4 °F 47% 30.06 in 10.0 mi Variable 5.8 mph - N/A   Mostly Cloudy
2:55 PM 77.0 °F 55.4 °F 47% 30.05 in 10.0 mi ENE 9.2 mph - N/A   Overcast
3:15 PM 77.0 °F 55.4 °F 47% 30.06 in 10.0 mi NE 8.1 mph - N/A   Overcast
3:35 PM 77.0 °F 55.4 °F 47% 30.05 in 10.0 mi NNE 5.8 mph - N/A   Mostly Cloudy
3:55 PM 77.0 °F 55.4 °F 47% 30.05 in 10.0 mi North 4.6 mph - N/A   Mostly Cloudy
4:15 PM 75.2 °F 55.4 °F 50% 30.05 in 10.0 mi NE 4.6 mph - N/A   Overcast
4:35 PM 77.0 °F 55.4 °F 47% 30.05 in 10.0 mi Calm Calm - N/A   Mostly Cloudy
5:15 PM 77.0 °F 55.4 °F 47% 30.04 in 10.0 mi Calm Calm - N/A   Mostly Cloudy
5:35 PM 77.0 °F 55.4 °F 47% 30.04 in 10.0 mi Variable 4.6 mph - N/A   Clear
5:55 PM 77.0 °F 55.4 °F 47% 30.03 in 10.0 mi NNE 5.8 mph - N/A   Clear
6:15 PM 77.0 °F 55.4 °F 47% 30.03 in 10.0 mi NE 5.8 mph - N/A   Clear
6:35 PM 77.0 °F 55.4 °F 47% 30.03 in 10.0 mi NE 5.8 mph - N/A   Clear
6:55 PM 77.0 °F 55.4 °F 47% 30.03 in 10.0 mi NE 4.6 mph - N/A   Clear
9:55 PM 69.8 °F 57.2 °F 64% 30.05 in 10.0 mi South 4.6 mph - N/A   Clear
10:15 PM 68.0 °F 57.2 °F 68% 30.05 in 10.0 mi SSE 4.6 mph - N/A   Clear
10:35 PM 68.0 °F 57.2 °F 68% 30.05 in 10.0 mi SSE 4.6 mph - N/A   Clear
10:55 PM 68.0 °F 57.2 °F 68% 30.05 in 10.0 mi SE 4.6 mph - N/A   Clear
11:15 PM 68.0 °F 57.2 °F 68% 30.05 in 10.0 mi SSE 5.8 mph - N/A   Clear
11:35 PM 68.0 °F 57.2 °F 68% 30.05 in 10.0 mi SSE 4.6 mph - N/A   Clear
11:55 PM 66.2 °F 57.2 °F 73% 30.05 in 10.0 mi SSE 5.8 mph - N/A   Clear